Regional Weather Roundup
Issued by NWS Bismarck, ND

Home | Current Version | Previous Version | Text Only | Print | Product List | Glossary On
Versions: 1 2 3 4 5 6 7 8 9 10 11 12 13 14 15 16 17 18 19 20 21 22 23 24 25 26 27 28 29 30 31 32 33 34 35 36 37 38 39 40 41 42 43 44 45 46 47 48 49 50
000
ASUS43 KBIS 011610
RWRBIS

NWR BROADCAST TEXT
NATIONAL WEATHER SERVICE BISMARCK ND
1100 AM CDT WED JUL 01 2015

NOTE: "FAIR" INDICATES FEW OR NO CLOUDS BELOW 12,000 FEET WITH NO
SIGNIFICANT WEATHER AND/OR OBSTRUCTIONS TO VISIBILITY.


CITY           SKY/WX    TMP DP  RH WIND       PRES   REMARKS
WILLISTON      CLOUDY    67  58  72 CALM      29.99S
MINOT          CLOUDY    67  62  84 N5        29.95S HAZE
MINOT AFB      CLOUDY    66  66 100 NE5       29.94S FOG
BISMARCK       CLOUDY    69  64  84 E5        29.95S
DICKINSON      CLOUDY    63  59  87 NE5       29.98R FOG
GARRISON         N/A     70  62  76 N5        29.95F
HETTINGER ARPT CLOUDY    64  61  90 NE5       29.99S FOG
JAMESTOWN      CLOUDY    70  60  70 S7        29.95S
BEACH          LGT RAIN  64  64 100 N6        30.02R
CROSBY         CLOUDY    63  63 100 NW3       29.99F FOG
HARVEY         CLOUDY    66  66 100 SE5       29.96R
HAZEN          PTSUNNY   68  63  83 N3        29.97R
LINTON         CLOUDY    68  68 100 SE6       29.94S
MANDAN         CLOUDY    68  64  88 CALM      29.96S
OAKES            N/A     68  66  94 SE8       29.94S
STANLEY        CLOUDY    66  66 100 SW5       29.99R
$$

CITY           SKY/WX    TMP DP  RH WIND       PRES   REMARKS
GRAND FORKS    SUNNY     74  58  57 W3        29.94S
GRAND FORKS AF SUNNY     73  61  65 W2        29.95S
DEVILS LAKE    SUNNY     70  57  64 S6        29.96R
FARGO          SUNNY     72  63  73 S8        29.96R
CANDO          FAIR      68  63  83 SE6       29.97S
CAVALIER       FAIR      73  59  60 S3        29.95S
GRAFTON        FAIR      73  55  53 CALM      29.96S
LANGDON        FAIR      72  59  64 CALM      29.98S
ROLLA          CLOUDY    66  64  94 S7        29.98S
WALHALLA       FAIR      72  63  73 MISG      29.95F
$$

CITY           SKY/WX    TMP DP  RH WIND       PRES   REMARKS
ABERDEEN       CLOUDY    70  64  81 E8        29.92S
MOBRIDGE       CLOUDY    74  67  78 E12       29.90S
BUFFALO          N/A     70  62  76 NE12      29.94R
RAPID CITY     SUNNY     79  59  50 N24G32    29.98F
GLASGOW        CLOUDY    70  59  68 CALM      30.00F HAZE
SIDNEY         PTSUNNY   68  61  77 N5        30.00S
WOLF POINT     CLOUDY    70  60  70 CALM      30.01R HAZE
GLENDIVE       CLOUDY    66  61  82 N6        30.01S
MILES CITY     SUNNY     75  61  61 N9        29.99F HAZE
BAKER          CLOUDY    66  61  84 N6        30.02R
$$

CITY           SKY/WX    TMP DP  RH WIND       PRES   REMARKS
BILLINGS       MOSUNNY   77  54  44 S6        30.06S
GREAT FALLS    SUNNY     77  53  43 CALM      30.05F
REGINA         CLOUDY    63  57  82 W3        29.99F SMOKE
ESTEVAN        CLOUDY    64  63  94 SW5       29.98S FOG
$$




USA.gov is the U.S. government's official web portal to all federal, state and local government web resources and services.